CZ-6A DEB, 56600

Orbit data source: Space-Track

CZ-6A DEB, 56600 is space debris in SSO originally from a launch on Fri, 11 Nov 2022 UTC launched from the Taiyaun Space Center, China (TSC). Debris objects in space refer to the collection of defunct objects orbiting the Earth. Examples of debris include non-operational satellites, rocket bodies, and fragments generated from explosions, collisions, or faulty payload assembly.

Loading next visibility...
Identifier
56600, 2022-151ADY
Orbit
SSO
Country
Flag of CNCN / PRC
Related business
Manufacturer
SAST
Mission
Spacecraft
Bus & Motor
Unknown
Mass
Unknown
Launch date (UTC)
2022-11-11 (4 years ago)
Launch vehicle
Unknown
Launch site
Taiyaun Space Center, China (TSC)
Object type
Payload
Rocket body
Debris
Shape & HBR
Unknown shape, 0.1 m
Radar Cross Section
Small (<0.1 m²)

Expand to show TLE details & history
Last TLE update: 13 hours ago

TLE from 13 hours ago
0 CZ-6A DEB
1 56600U 22151ADY 26236.70151649  .00046826  00000-0  32295-2 0  9999
2 56600  98.6197 321.8955 0031534  15.1083 345.1075 15.05231883186833
Epoch: 2026-08-24T16:50Z
TLE epoch observation values (Epoch: 2026-08-24T16:50:11.024Z)
Latitude
-0.00003°
Longitude
96.37013°
Altitude
532.711 km
Speed
7.608 km/s
True Right ascension
21h 27m 34s
True Declination
0° 00' 00"
Sunlit
Object was in full shadow at epoch
Visualization orbit readout
Latitude
Unknown
Longitude
Unknown
Altitude
Unknown
Speed
Unknown
Apparent Right ascension
Unknown
Apparent Declination
Unknown
Sunlit
N/A
Visualization observer readout
Local Sidereal Time
21:13:01
Azimuth
Unknown
Elevation
Unknown
Doppler factor
Unknown
Orbital elements
Apogee altitude
569.676 km
Perigee altitude
525.995 km
Semi-major axis
6,925.972 km
Eccentricity
0.00315
Inclination
98.6197°
RAAN
321.8955°
Arg. of periapsis
15.1083°
True anomaly
345.01427°
Mean anomaly
345.1075°
Eccentric anomaly
345.06092°
Mean motion
3.76549 °/min
Orbital period
95.6 mins
BSTAR
0.0032295
Loading maneuver chart data...
Computing Atmospheric mass density...
Loading historical data...
Loading historical data...
Loading historical data...
Loading historical data...
Loading historical data...
Loading historical data...
Loading historical data...

Documentation

Showing up to 5 results
|